Satellite-Ground Cal/Val Site Overpasses Predictions

Prediction of Satellite NPP Overpassing Cal/Val Site: Antarctic Dome C

Ground Cal/Val Site Location: Latitude: -75.10, Longitude: 123.35; Satellite-Ground Site NADIR distance within 100 km.

Table of predicted overpasses for the next 14.0 days since TLE Epoch: 10/19/2018
Interval Starting Time Ending Time Minimum Distance Time Minimum Distance (km)
1 10/20/2018 15:01:39 10/20/2018 15:02:03 10/20/2018 15:01:51 56.36
2 10/21/2018 14:42:50 10/21/2018 14:43:14 10/21/2018 14:43:02 52.79
3 10/22/2018 07:44:31 10/22/2018 07:44:51 10/22/2018 07:44:41 73.44
4 10/23/2018 07:25:37 10/23/2018 07:26:05 10/23/2018 07:25:51 34.39
5 10/25/2018 15:08:03 10/25/2018 15:08:12 10/25/2018 15:08:07 94.28
6 10/26/2018 14:49:03 10/26/2018 14:49:32 10/26/2018 14:49:18 17.06
7 10/28/2018 07:31:52 10/28/2018 07:32:21 10/28/2018 07:32:07 2.95
8 10/31/2018 14:55:18 10/31/2018 14:55:47 10/31/2018 14:55:32 19.67
9 11/01/2018 14:36:36 11/01/2018 14:36:50 11/01/2018 14:36:43 87.40


NCC Satellite Cal/Val Overpasses Prediction Service
